Year,Month,Day,Hour,Minute,Value (Times are PST for temperature in C)
2019,03,20,00,00,9.10
2019,03,20,00,01,9.10
2019,03,20,00,02,9.10
2019,03,20,00,03,9.00
2019,03,20,00,04,9.00
2019,03,20,00,05,8.90
2019,03,20,00,06,8.80
2019,03,20,00,07,8.70
2019,03,20,00,08,8.60
2019,03,20,00,09,8.50
2019,03,20,00,10,8.50
2019,03,20,00,11,8.50
2019,03,20,00,12,8.50
2019,03,20,00,13,8.40
2019,03,20,00,14,8.30
2019,03,20,00,15,8.20
2019,03,20,00,16,8.20
2019,03,20,00,17,8.10
2019,03,20,00,18,8.10
2019,03,20,00,19,8.10
2019,03,20,00,20,8.00
2019,03,20,00,21,8.00
2019,03,20,00,22,7.90
2019,03,20,00,23,7.90
2019,03,20,00,24,7.80
2019,03,20,00,25,7.70
2019,03,20,00,26,7.60
2019,03,20,00,27,7.60
2019,03,20,00,28,7.60
2019,03,20,00,29,7.50
2019,03,20,00,30,7.40
2019,03,20,00,31,7.40
2019,03,20,00,32,7.30
2019,03,20,00,33,7.30
2019,03,20,00,34,7.20
2019,03,20,00,35,7.20
2019,03,20,00,36,7.20
2019,03,20,00,37,7.10
2019,03,20,00,38,7.20
2019,03,20,00,39,7.20
2019,03,20,00,40,7.30
2019,03,20,00,41,7.30
2019,03,20,00,42,7.30
2019,03,20,00,43,7.30
2019,03,20,00,44,7.30
2019,03,20,00,45,7.40
2019,03,20,00,46,7.40
2019,03,20,00,47,7.40
2019,03,20,00,48,7.40
2019,03,20,00,49,7.40
2019,03,20,00,50,7.40
2019,03,20,00,51,7.40
2019,03,20,00,52,7.40
2019,03,20,00,53,7.40
2019,03,20,00,54,7.40
2019,03,20,00,55,7.40
2019,03,20,00,56,7.40
2019,03,20,00,57,7.40
2019,03,20,00,58,7.30
2019,03,20,00,59,7.30
2019,03,20,01,00,7.30
2019,03,20,01,01,7.30
2019,03,20,01,02,7.30
2019,03,20,01,03,7.30
2019,03,20,01,04,7.30
2019,03,20,01,05,7.30
2019,03,20,01,06,7.20
2019,03,20,01,07,7.20
2019,03,20,01,08,7.20
2019,03,20,01,09,7.10
2019,03,20,01,10,7.10
2019,03,20,01,11,7.00
2019,03,20,01,12,6.90
2019,03,20,01,13,6.90
2019,03,20,01,14,6.90
2019,03,20,01,15,6.90
2019,03,20,01,16,6.90
2019,03,20,01,17,6.90
2019,03,20,01,18,6.80
2019,03,20,01,19,6.80
2019,03,20,01,20,6.70
2019,03,20,01,21,6.70
2019,03,20,01,22,6.70
2019,03,20,01,23,6.70
2019,03,20,01,24,6.60
2019,03,20,01,25,6.60
2019,03,20,01,26,6.60
2019,03,20,01,27,6.60
2019,03,20,01,28,6.60
2019,03,20,01,29,6.50
2019,03,20,01,30,6.50
2019,03,20,01,31,6.50
2019,03,20,01,32,6.50
2019,03,20,01,33,6.40
2019,03,20,01,34,6.40
2019,03,20,01,35,6.40
2019,03,20,01,36,6.40
2019,03,20,01,37,6.40
2019,03,20,01,38,6.40
2019,03,20,01,39,6.40
2019,03,20,01,40,6.40
2019,03,20,01,41,6.40
2019,03,20,01,42,6.40
2019,03,20,01,43,6.40
2019,03,20,01,44,6.40
2019,03,20,01,45,6.40
2019,03,20,01,46,6.40
2019,03,20,01,47,6.40
2019,03,20,01,48,6.40
2019,03,20,01,49,6.30
2019,03,20,01,50,6.30
2019,03,20,01,51,6.30
2019,03,20,01,52,6.20
2019,03,20,01,53,6.30
2019,03,20,01,54,6.30
2019,03,20,01,55,6.30
2019,03,20,01,56,6.30
2019,03,20,01,57,6.30
2019,03,20,01,58,6.40
2019,03,20,01,59,6.40
2019,03,20,02,00,6.40
2019,03,20,02,01,6.50
2019,03,20,02,02,6.50
2019,03,20,02,03,6.50
2019,03,20,02,04,6.50
2019,03,20,02,05,6.40
2019,03,20,02,06,6.40
2019,03,20,02,07,6.40
2019,03,20,02,08,6.30
2019,03,20,02,09,6.30
2019,03,20,02,10,6.20
2019,03,20,02,11,6.20
2019,03,20,02,12,6.10
2019,03,20,02,13,6.00
2019,03,20,02,14,5.90
2019,03,20,02,15,5.90
2019,03,20,02,16,5.80
2019,03,20,02,17,5.80
2019,03,20,02,18,5.80
2019,03,20,02,19,5.70
2019,03,20,02,20,5.70
2019,03,20,02,21,5.70
2019,03,20,02,22,5.70
2019,03,20,02,23,5.70
2019,03,20,02,24,5.70
2019,03,20,02,25,5.80
2019,03,20,02,26,5.80
2019,03,20,02,27,5.80
2019,03,20,02,28,5.80
2019,03,20,02,29,5.90
2019,03,20,02,30,6.00
2019,03,20,02,31,6.00
2019,03,20,02,32,6.10
2019,03,20,02,33,6.10
2019,03,20,02,34,6.20
2019,03,20,02,35,6.20
2019,03,20,02,36,6.30
2019,03,20,02,37,6.30
2019,03,20,02,38,6.30
2019,03,20,02,39,6.30
2019,03,20,02,40,6.30
2019,03,20,02,41,6.30
2019,03,20,02,42,6.30
2019,03,20,02,43,6.30
2019,03,20,02,44,6.40
2019,03,20,02,45,6.40
2019,03,20,02,46,6.50
2019,03,20,02,47,6.50
2019,03,20,02,48,6.60
2019,03,20,02,49,6.70
2019,03,20,02,50,6.80
2019,03,20,02,51,6.80
2019,03,20,02,52,6.90
2019,03,20,02,53,6.90
2019,03,20,02,54,6.90
2019,03,20,02,55,7.00
2019,03,20,02,56,7.00
2019,03,20,02,57,6.90
2019,03,20,02,58,6.90
2019,03,20,02,59,6.90
2019,03,20,03,00,6.80
2019,03,20,03,01,6.80
2019,03,20,03,02,6.80
2019,03,20,03,03,6.80
2019,03,20,03,04,6.80
2019,03,20,03,05,6.80
2019,03,20,03,06,6.70
2019,03,20,03,07,6.70
2019,03,20,03,08,6.70
2019,03,20,03,09,6.70
2019,03,20,03,10,6.70
2019,03,20,03,11,6.70
2019,03,20,03,12,6.70
2019,03,20,03,13,6.70
2019,03,20,03,14,6.70
2019,03,20,03,15,6.70
2019,03,20,03,16,6.70
2019,03,20,03,17,6.70
2019,03,20,03,18,6.70
2019,03,20,03,19,6.80
2019,03,20,03,20,6.80
2019,03,20,03,21,6.80
2019,03,20,03,22,6.90
2019,03,20,03,23,7.00
2019,03,20,03,24,7.00
2019,03,20,03,25,7.00
2019,03,20,03,26,7.00
2019,03,20,03,27,7.10
2019,03,20,03,28,7.00
2019,03,20,03,29,7.00
2019,03,20,03,30,7.00
2019,03,20,03,31,7.00
2019,03,20,03,32,7.00
2019,03,20,03,33,7.00
2019,03,20,03,34,7.10
2019,03,20,03,35,7.10
2019,03,20,03,36,7.10
2019,03,20,03,37,7.10
2019,03,20,03,38,7.10
2019,03,20,03,39,7.10
2019,03,20,03,40,7.10
2019,03,20,03,41,7.10
2019,03,20,03,42,7.10
2019,03,20,03,43,7.10
2019,03,20,03,44,7.10
2019,03,20,03,45,7.10
2019,03,20,03,46,7.10
2019,03,20,03,47,7.10
2019,03,20,03,48,7.10
2019,03,20,03,49,7.00
2019,03,20,03,50,7.00
2019,03,20,03,51,6.90
2019,03,20,03,52,6.90
2019,03,20,03,53,6.90
2019,03,20,03,54,6.90
2019,03,20,03,55,6.80
2019,03,20,03,56,6.80
2019,03,20,03,57,6.70
2019,03,20,03,58,6.70
2019,03,20,03,59,6.60
2019,03,20,04,00,6.60
2019,03,20,04,01,6.50
2019,03,20,04,02,6.50
2019,03,20,04,03,6.40
2019,03,20,04,04,6.40
2019,03,20,04,05,6.40
2019,03,20,04,06,6.50
2019,03,20,04,07,6.50
2019,03,20,04,08,6.50
2019,03,20,04,09,6.50
2019,03,20,04,10,6.40
2019,03,20,04,11,6.40
2019,03,20,04,12,6.40
2019,03,20,04,13,6.30
2019,03,20,04,14,6.30
2019,03,20,04,15,6.30
2019,03,20,04,16,6.30
2019,03,20,04,17,6.20
2019,03,20,04,18,6.20
2019,03,20,04,19,6.10
2019,03,20,04,20,6.00
2019,03,20,04,21,6.00
2019,03,20,04,22,5.90
2019,03,20,04,23,5.90
2019,03,20,04,24,5.90
2019,03,20,04,25,5.90
2019,03,20,04,26,5.90
2019,03,20,04,27,5.90
2019,03,20,04,28,6.00
2019,03,20,04,29,6.00
2019,03,20,04,30,5.90
2019,03,20,04,31,5.90
2019,03,20,04,32,5.90
2019,03,20,04,33,5.80
2019,03,20,04,34,5.70
2019,03,20,04,35,5.70
2019,03,20,04,36,5.60
2019,03,20,04,37,5.50
2019,03,20,04,38,5.50
2019,03,20,04,39,5.40
2019,03,20,04,40,5.30
2019,03,20,04,41,5.20
2019,03,20,04,42,5.10
2019,03,20,04,43,5.00
2019,03,20,04,44,5.00
2019,03,20,04,45,4.90
2019,03,20,04,46,4.80
2019,03,20,04,47,4.80
2019,03,20,04,48,4.70
2019,03,20,04,49,4.60
2019,03,20,04,50,4.60
2019,03,20,04,51,4.50
2019,03,20,04,52,4.50
2019,03,20,04,53,4.50
2019,03,20,04,54,4.60
2019,03,20,04,55,4.60
2019,03,20,04,56,4.70
2019,03,20,04,57,4.70
2019,03,20,04,58,4.80
2019,03,20,04,59,5.00
2019,03,20,05,00,5.10
2019,03,20,05,01,5.40
2019,03,20,05,02,5.50
2019,03,20,05,03,5.60
2019,03,20,05,04,5.60
2019,03,20,05,05,5.70
2019,03,20,05,06,5.80
2019,03,20,05,07,5.90
2019,03,20,05,08,5.90
2019,03,20,05,09,5.90
2019,03,20,05,10,6.00
2019,03,20,05,11,6.00
2019,03,20,05,12,6.10
2019,03,20,05,13,6.10
2019,03,20,05,14,6.10
2019,03,20,05,15,6.20
2019,03,20,05,16,6.20
2019,03,20,05,17,6.20
2019,03,20,05,18,6.10
2019,03,20,05,19,6.00
2019,03,20,05,20,5.80
2019,03,20,05,21,5.60
2019,03,20,05,22,5.50
2019,03,20,05,23,5.30
2019,03,20,05,24,5.10
2019,03,20,05,25,5.00
2019,03,20,05,26,4.90
2019,03,20,05,27,4.90
2019,03,20,05,28,5.00
2019,03,20,05,29,5.00
2019,03,20,05,30,4.90
2019,03,20,05,31,4.90
2019,03,20,05,32,4.80
2019,03,20,05,33,4.70
2019,03,20,05,34,4.70
2019,03,20,05,35,4.60
2019,03,20,05,36,4.60
2019,03,20,05,37,4.60
2019,03,20,05,38,4.70
2019,03,20,05,39,4.70
2019,03,20,05,40,4.70
2019,03,20,05,41,4.70
2019,03,20,05,42,4.70
2019,03,20,05,43,4.70
2019,03,20,05,44,4.60
2019,03,20,05,45,4.60
2019,03,20,05,46,4.60
2019,03,20,05,47,4.70
2019,03,20,05,48,4.70
2019,03,20,05,49,4.70
2019,03,20,05,50,4.70
2019,03,20,05,51,4.70
2019,03,20,05,52,4.70
2019,03,20,05,53,4.80
2019,03,20,05,54,4.80
2019,03,20,05,55,4.80
2019,03,20,05,56,4.80
2019,03,20,05,57,4.80
2019,03,20,05,58,4.80
2019,03,20,05,59,4.80
2019,03,20,06,00,4.80
2019,03,20,06,01,4.70
2019,03,20,06,02,4.70
2019,03,20,06,03,4.60
2019,03,20,06,04,4.50
2019,03,20,06,05,4.50
2019,03,20,06,06,4.40
2019,03,20,06,07,4.40
2019,03,20,06,08,4.40
2019,03,20,06,09,4.30
2019,03,20,06,10,4.30
2019,03,20,06,11,4.30
2019,03,20,06,12,4.30
2019,03,20,06,13,4.30
2019,03,20,06,14,4.30
2019,03,20,06,15,4.30
2019,03,20,06,16,4.30
2019,03,20,06,17,4.20
2019,03,20,06,18,4.20
2019,03,20,06,19,4.20
2019,03,20,06,20,4.10
2019,03,20,06,21,4.10
2019,03,20,06,22,4.00
2019,03,20,06,23,4.00
2019,03,20,06,24,3.90
2019,03,20,06,25,3.90
2019,03,20,06,26,3.90
2019,03,20,06,27,3.90
2019,03,20,06,28,3.90
2019,03,20,06,29,3.90
2019,03,20,06,30,3.90
2019,03,20,06,31,4.00
2019,03,20,06,32,4.10
2019,03,20,06,33,4.10
2019,03,20,06,34,4.10
2019,03,20,06,35,4.10
2019,03,20,06,36,4.10
2019,03,20,06,37,4.10
2019,03,20,06,38,4.10
2019,03,20,06,39,4.10
2019,03,20,06,40,4.10
2019,03,20,06,41,4.20
2019,03,20,06,42,4.30
2019,03,20,06,43,4.30
2019,03,20,06,44,4.30
2019,03,20,06,45,4.30
2019,03,20,06,46,4.40
2019,03,20,06,47,4.40
2019,03,20,06,48,4.40
2019,03,20,06,49,4.50
2019,03,20,06,50,4.60
2019,03,20,06,51,4.60
2019,03,20,06,52,4.60
2019,03,20,06,53,4.60
2019,03,20,06,54,4.60
2019,03,20,06,55,4.60
2019,03,20,06,56,4.60
2019,03,20,06,57,4.60
2019,03,20,06,58,4.70
2019,03,20,06,59,4.70
2019,03,20,07,00,4.70
2019,03,20,07,01,4.70
2019,03,20,07,02,4.80
2019,03,20,07,03,4.90
2019,03,20,07,04,5.00
2019,03,20,07,05,5.10
2019,03,20,07,06,5.20
2019,03,20,07,07,5.20
2019,03,20,07,08,5.30
2019,03,20,07,09,5.30
2019,03,20,07,10,5.30
2019,03,20,07,11,5.30
2019,03,20,07,12,5.20
2019,03,20,07,13,5.20
2019,03,20,07,14,5.20
2019,03,20,07,15,5.10
2019,03,20,07,16,5.00
2019,03,20,07,17,5.10
2019,03,20,07,18,5.10
2019,03,20,07,19,5.20
2019,03,20,07,20,5.20
2019,03,20,07,21,5.30
2019,03,20,07,22,5.30
2019,03,20,07,23,5.30
2019,03,20,07,24,5.30
2019,03,20,07,25,5.30
2019,03,20,07,26,5.30
2019,03,20,07,27,5.30
2019,03,20,07,28,5.30
2019,03,20,07,29,5.30
2019,03,20,07,30,5.30
2019,03,20,07,31,5.20
2019,03,20,07,32,5.20
2019,03,20,07,33,5.20
2019,03,20,07,34,5.20
2019,03,20,07,35,5.20
2019,03,20,07,36,5.20
2019,03,20,07,37,5.20
2019,03,20,07,38,5.20
2019,03,20,07,39,5.20
2019,03,20,07,40,5.20
2019,03,20,07,41,5.10
2019,03,20,07,42,5.10
2019,03,20,07,43,5.10
2019,03,20,07,44,5.00
2019,03,20,07,45,5.10
2019,03,20,07,46,5.10
2019,03,20,07,47,5.20
2019,03,20,07,48,5.20
2019,03,20,07,49,5.20
2019,03,20,07,50,5.30
2019,03,20,07,51,5.30
2019,03,20,07,52,5.30
2019,03,20,07,53,5.30
2019,03,20,07,54,5.30
2019,03,20,07,55,5.30
2019,03,20,07,56,5.30
2019,03,20,07,57,5.40
2019,03,20,07,58,5.40
2019,03,20,07,59,5.50
2019,03,20,08,00,5.50
2019,03,20,08,01,5.50
2019,03,20,08,02,5.50
2019,03,20,08,03,5.50
2019,03,20,08,04,5.60
2019,03,20,08,05,5.60
2019,03,20,08,06,5.60
2019,03,20,08,07,5.60
2019,03,20,08,08,5.70
2019,03,20,08,09,5.80
2019,03,20,08,10,5.90
2019,03,20,08,11,6.00
2019,03,20,08,12,6.10
2019,03,20,08,13,6.10
2019,03,20,08,14,6.10
2019,03,20,08,15,6.10
2019,03,20,08,16,6.10
2019,03,20,08,17,6.10
2019,03,20,08,18,6.00
2019,03,20,08,19,6.00
2019,03,20,08,20,5.90
2019,03,20,08,21,5.90
2019,03,20,08,22,5.90
2019,03,20,08,23,5.80
2019,03,20,08,24,5.80
2019,03,20,08,25,5.80
2019,03,20,08,26,5.80
2019,03,20,08,27,5.90
2019,03,20,08,28,5.90
2019,03,20,08,29,6.00
2019,03,20,08,30,6.00
2019,03,20,08,31,6.10
2019,03,20,08,32,6.10
2019,03,20,08,33,6.10
2019,03,20,08,34,6.20
2019,03,20,08,35,6.20
2019,03,20,08,36,6.20
2019,03,20,08,37,6.30
2019,03,20,08,38,6.30
2019,03,20,08,39,6.20
2019,03,20,08,40,6.20
2019,03,20,08,41,6.20
2019,03,20,08,42,6.20
2019,03,20,08,43,6.20
2019,03,20,08,44,6.20
2019,03,20,08,45,6.30
2019,03,20,08,46,6.30
2019,03,20,08,47,6.40
2019,03,20,08,48,6.50
2019,03,20,08,49,6.60
2019,03,20,08,50,6.60
2019,03,20,08,51,6.70
2019,03,20,08,52,6.80
2019,03,20,08,53,6.90
2019,03,20,08,54,7.00
2019,03,20,08,55,7.00
2019,03,20,08,56,7.00
2019,03,20,08,57,7.00
2019,03,20,08,58,7.10
2019,03,20,08,59,7.20
2019,03,20,09,00,7.40
2019,03,20,09,01,7.50
2019,03,20,09,02,7.60
2019,03,20,09,03,7.70
2019,03,20,09,04,7.80
2019,03,20,09,05,7.90
2019,03,20,09,06,8.00
2019,03,20,09,07,8.10
2019,03,20,09,08,8.30
2019,03,20,09,09,8.40
2019,03,20,09,10,8.60
2019,03,20,09,11,8.70
2019,03,20,09,12,8.70
2019,03,20,09,13,8.70
2019,03,20,09,14,8.70
2019,03,20,09,15,8.70
2019,03,20,09,16,8.80
2019,03,20,09,17,8.80
2019,03,20,09,18,8.90
2019,03,20,09,19,9.00
2019,03,20,09,20,9.10
2019,03,20,09,21,9.30
2019,03,20,09,22,9.40
2019,03,20,09,23,9.50
2019,03,20,09,24,9.60
2019,03,20,09,25,9.70
2019,03,20,09,26,9.80
2019,03,20,09,27,9.90
2019,03,20,09,28,10.10
2019,03,20,09,29,10.20
2019,03,20,09,30,10.30
2019,03,20,09,31,10.40
2019,03,20,09,32,10.50
2019,03,20,09,33,10.60
2019,03,20,09,34,10.70
2019,03,20,09,35,10.70
2019,03,20,09,36,10.80
2019,03,20,09,37,10.80
2019,03,20,09,38,10.90
2019,03,20,09,39,11.00
2019,03,20,09,40,11.00
2019,03,20,09,41,11.10
2019,03,20,09,42,11.20
2019,03,20,09,43,11.30
2019,03,20,09,44,11.40
2019,03,20,09,45,11.50
2019,03,20,09,46,11.60
2019,03,20,09,47,11.60
2019,03,20,09,48,11.70
2019,03,20,09,49,11.80
2019,03,20,09,50,11.90
2019,03,20,09,51,11.90
2019,03,20,09,52,12.00
2019,03,20,09,53,12.10
2019,03,20,09,54,12.20
2019,03,20,09,55,12.30
2019,03,20,09,56,12.30
2019,03,20,09,57,12.50
2019,03,20,09,58,12.50
2019,03,20,09,59,12.60
2019,03,20,10,00,12.70
2019,03,20,10,01,12.80
2019,03,20,10,02,12.90
2019,03,20,10,03,13.00
2019,03,20,10,04,13.10
2019,03,20,10,05,13.20
2019,03,20,10,06,13.20
2019,03,20,10,07,13.30
2019,03,20,10,08,13.40
2019,03,20,10,09,13.40
2019,03,20,10,10,13.30
2019,03,20,10,11,13.30
2019,03,20,10,12,13.30
2019,03,20,10,13,13.30
2019,03,20,10,14,13.30
2019,03,20,10,15,13.40
2019,03,20,10,16,13.50
2019,03,20,10,17,13.60
2019,03,20,10,18,13.60
2019,03,20,10,19,13.70
2019,03,20,10,20,13.80
2019,03,20,10,21,13.90
2019,03,20,10,22,14.00
2019,03,20,10,23,14.10
2019,03,20,10,24,14.30
2019,03,20,10,25,14.40
2019,03,20,10,26,14.60
2019,03,20,10,27,14.70
2019,03,20,10,28,14.90
2019,03,20,10,29,15.00
2019,03,20,10,30,15.10
2019,03,20,10,31,15.00
2019,03,20,10,32,14.90
2019,03,20,10,33,14.80
2019,03,20,10,34,14.70
2019,03,20,10,35,14.60
2019,03,20,10,36,14.50
2019,03,20,10,37,14.40
2019,03,20,10,38,14.40
2019,03,20,10,39,14.30
2019,03,20,10,40,14.30
2019,03,20,10,41,14.30
2019,03,20,10,42,14.30
2019,03,20,10,43,14.30
2019,03,20,10,44,14.30
2019,03,20,10,45,14.30
2019,03,20,10,46,14.30
2019,03,20,10,47,14.30
2019,03,20,10,48,14.40
2019,03,20,10,49,14.50
2019,03,20,10,50,14.60
2019,03,20,10,51,14.70
2019,03,20,10,52,14.80
2019,03,20,10,53,14.90
2019,03,20,10,54,15.00
2019,03,20,10,55,15.10
2019,03,20,10,56,15.20
2019,03,20,10,57,15.30
2019,03,20,10,58,15.40
2019,03,20,10,59,15.30
2019,03,20,11,00,15.30
2019,03,20,11,01,15.20
2019,03,20,11,02,15.10
2019,03,20,11,03,15.10
2019,03,20,11,04,15.00
2019,03,20,11,05,15.10
2019,03,20,11,06,15.10
2019,03,20,11,07,15.10
2019,03,20,11,08,15.10
2019,03,20,11,09,15.20
2019,03,20,11,10,15.20
2019,03,20,11,11,15.30
2019,03,20,11,12,15.40
2019,03,20,11,13,15.50
2019,03,20,11,14,15.70
2019,03,20,11,15,15.80
2019,03,20,11,16,15.90
2019,03,20,11,17,16.00
2019,03,20,11,18,16.20
2019,03,20,11,19,16.30
2019,03,20,11,20,16.50
2019,03,20,11,21,16.60
2019,03,20,11,22,16.80
2019,03,20,11,23,17.00
2019,03,20,11,24,17.10
2019,03,20,11,25,17.30
2019,03,20,11,26,17.40
2019,03,20,11,27,17.50
2019,03,20,11,28,17.60
2019,03,20,11,29,17.70
2019,03,20,11,30,17.80
2019,03,20,11,31,17.90
2019,03,20,11,32,18.00
2019,03,20,11,33,18.10
2019,03,20,11,34,18.20
2019,03,20,11,35,18.30
2019,03,20,11,36,18.40
2019,03,20,11,37,18.50
2019,03,20,11,38,18.50
2019,03,20,11,39,18.60
2019,03,20,11,40,18.60
2019,03,20,11,41,18.60
2019,03,20,11,42,18.70
2019,03,20,11,43,18.70
2019,03,20,11,44,18.70
2019,03,20,11,45,18.70
2019,03,20,11,46,18.70
2019,03,20,11,47,18.60
2019,03,20,11,48,18.60
2019,03,20,11,49,18.60
2019,03,20,11,50,18.60
2019,03,20,11,51,18.50
2019,03,20,11,52,18.50
2019,03,20,11,53,18.50
2019,03,20,11,54,18.50
2019,03,20,11,55,18.50
2019,03,20,11,56,18.50
2019,03,20,11,57,18.40
2019,03,20,11,58,18.50
2019,03,20,11,59,18.50
2019,03,20,12,00,18.60
2019,03,20,12,01,18.60
2019,03,20,12,02,18.50
2019,03,20,12,03,18.40
2019,03,20,12,04,18.30
2019,03,20,12,05,18.30
2019,03,20,12,06,18.40
2019,03,20,12,07,18.50
2019,03,20,12,08,18.50
2019,03,20,12,09,18.60
2019,03,20,12,10,18.70
2019,03,20,12,11,18.60
2019,03,20,12,12,18.50
2019,03,20,12,13,18.40
2019,03,20,12,14,18.30
2019,03,20,12,15,18.30
2019,03,20,12,16,18.30
2019,03,20,12,17,18.30
2019,03,20,12,18,18.20
2019,03,20,12,19,18.20
2019,03,20,12,20,18.10
2019,03,20,12,21,18.10
2019,03,20,12,22,18.10
2019,03,20,12,23,18.00
2019,03,20,12,24,18.00
2019,03,20,12,25,18.00
2019,03,20,12,26,18.00
2019,03,20,12,27,18.10
2019,03,20,12,28,18.10
2019,03,20,12,29,18.10
2019,03,20,12,30,18.20
2019,03,20,12,31,18.20
2019,03,20,12,32,18.30
2019,03,20,12,33,18.30
2019,03,20,12,34,18.30
2019,03,20,12,35,18.30
2019,03,20,12,36,18.40
2019,03,20,12,37,18.50
2019,03,20,12,38,18.60
2019,03,20,12,39,18.70
2019,03,20,12,40,18.80
2019,03,20,12,41,18.90
2019,03,20,12,42,18.90
2019,03,20,12,43,18.90
2019,03,20,12,44,18.80
2019,03,20,12,45,18.70
2019,03,20,12,46,18.60
2019,03,20,12,47,18.60
2019,03,20,12,48,18.60
2019,03,20,12,49,18.70
2019,03,20,12,50,18.80
2019,03,20,12,51,18.90
2019,03,20,12,52,19.00
2019,03,20,12,53,19.10
2019,03,20,12,54,19.10
2019,03,20,12,55,19.20
2019,03,20,12,56,19.30
2019,03,20,12,57,19.30
2019,03,20,12,58,19.30
2019,03,20,12,59,19.30
2019,03,20,13,00,19.30
2019,03,20,13,01,19.30
2019,03,20,13,02,19.30
2019,03,20,13,03,19.30
2019,03,20,13,04,19.30
2019,03,20,13,05,19.30
2019,03,20,13,06,19.20
2019,03,20,13,07,19.20
2019,03,20,13,08,19.20
2019,03,20,13,09,19.20
2019,03,20,13,10,19.30
2019,03,20,13,11,19.40
2019,03,20,13,12,19.50
2019,03,20,13,13,19.60
2019,03,20,13,14,19.60
2019,03,20,13,15,19.50
2019,03,20,13,16,19.50
2019,03,20,13,17,19.50
2019,03,20,13,18,19.50
2019,03,20,13,19,19.50
2019,03,20,13,20,19.50
2019,03,20,13,21,19.50
2019,03,20,13,22,19.60
2019,03,20,13,23,19.60
2019,03,20,13,24,19.70
2019,03,20,13,25,19.70
2019,03,20,13,26,19.70
2019,03,20,13,27,19.70
2019,03,20,13,28,19.70
2019,03,20,13,29,19.70
2019,03,20,13,30,19.60
2019,03,20,13,31,19.60
2019,03,20,13,32,19.70
2019,03,20,13,33,19.70
2019,03,20,13,34,19.70
2019,03,20,13,35,19.80
2019,03,20,13,36,19.80
2019,03,20,13,37,19.90
2019,03,20,13,38,19.90
2019,03,20,13,39,20.00
2019,03,20,13,40,20.00
2019,03,20,13,41,19.90
2019,03,20,13,42,19.90
2019,03,20,13,43,20.00
2019,03,20,13,44,20.00
2019,03,20,13,45,20.10
2019,03,20,13,46,20.10
2019,03,20,13,47,20.10
2019,03,20,13,48,20.00
2019,03,20,13,49,19.90
2019,03,20,13,50,19.80
2019,03,20,13,51,19.80
2019,03,20,13,52,19.90
2019,03,20,13,53,19.90
2019,03,20,13,54,19.80
2019,03,20,13,55,19.80
2019,03,20,13,56,19.60
2019,03,20,13,57,19.40
2019,03,20,13,58,19.30
2019,03,20,13,59,19.30
2019,03,20,14,00,19.30
2019,03,20,14,01,19.40
2019,03,20,14,02,19.40
2019,03,20,14,03,19.50
2019,03,20,14,04,19.50
2019,03,20,14,05,19.40
2019,03,20,14,06,19.30
2019,03,20,14,07,19.30
2019,03,20,14,08,19.30
2019,03,20,14,09,19.40
2019,03,20,14,10,19.50
2019,03,20,14,11,19.50
2019,03,20,14,12,19.60
2019,03,20,14,13,19.70
2019,03,20,14,14,19.80
2019,03,20,14,15,19.80
2019,03,20,14,16,19.90
2019,03,20,14,17,19.80
2019,03,20,14,18,19.90
2019,03,20,14,19,19.90
2019,03,20,14,20,19.90
2019,03,20,14,21,19.90
2019,03,20,14,22,20.00
2019,03,20,14,23,20.00
2019,03,20,14,24,20.00
2019,03,20,14,25,20.00
2019,03,20,14,26,20.00
2019,03,20,14,27,19.90
2019,03,20,14,28,19.80
2019,03,20,14,29,19.80
2019,03,20,14,30,19.70
2019,03,20,14,31,19.70
2019,03,20,14,32,19.70
2019,03,20,14,33,19.70
2019,03,20,14,34,19.60
2019,03,20,14,35,19.60
2019,03,20,14,36,19.50
2019,03,20,14,37,19.50
2019,03,20,14,38,19.50
2019,03,20,14,39,19.40
2019,03,20,14,40,19.30
2019,03,20,14,41,19.20
2019,03,20,14,42,19.10
2019,03,20,14,43,18.90
2019,03,20,14,44,18.80
2019,03,20,14,45,18.70
2019,03,20,14,46,18.60
2019,03,20,14,47,18.60
2019,03,20,14,48,18.50
2019,03,20,14,49,18.40
2019,03,20,14,50,18.40
2019,03,20,14,51,18.30
2019,03,20,14,52,18.20
2019,03,20,14,53,18.10
2019,03,20,14,54,18.10
2019,03,20,14,55,18.00
2019,03,20,14,56,17.90
2019,03,20,14,57,17.90
2019,03,20,14,58,17.90
2019,03,20,14,59,17.80
2019,03,20,15,00,17.80
2019,03,20,15,01,17.80
2019,03,20,15,02,17.90
2019,03,20,15,03,17.90
2019,03,20,15,04,17.90
2019,03,20,15,05,17.90
2019,03,20,15,06,17.90
2019,03,20,15,07,17.90
2019,03,20,15,08,18.00
2019,03,20,15,09,18.00
2019,03,20,15,10,18.00
2019,03,20,15,11,17.90
2019,03,20,15,12,17.90
2019,03,20,15,13,17.90
2019,03,20,15,14,17.90
2019,03,20,15,15,17.90
2019,03,20,15,16,17.90
2019,03,20,15,17,17.90
2019,03,20,15,18,17.90
2019,03,20,15,19,17.90
2019,03,20,15,20,18.00
2019,03,20,15,21,18.00
2019,03,20,15,22,18.10
2019,03,20,15,23,18.10
2019,03,20,15,24,18.20
2019,03,20,15,25,18.30
2019,03,20,15,26,18.40
2019,03,20,15,27,18.50
2019,03,20,15,28,18.60
2019,03,20,15,29,18.80
2019,03,20,15,30,18.90
2019,03,20,15,31,19.00
2019,03,20,15,32,19.10
2019,03,20,15,33,19.30
2019,03,20,15,34,19.50
2019,03,20,15,35,19.70
2019,03,20,15,36,19.90
2019,03,20,15,37,20.00
2019,03,20,15,38,20.20
2019,03,20,15,39,20.30
2019,03,20,15,40,20.50
2019,03,20,15,41,20.50
2019,03,20,15,42,20.60
2019,03,20,15,43,20.70
2019,03,20,15,44,20.70
2019,03,20,15,45,20.70
2019,03,20,15,46,20.60
2019,03,20,15,47,20.50
2019,03,20,15,48,20.30
2019,03,20,15,49,20.10
2019,03,20,15,50,19.90
2019,03,20,15,51,19.80
2019,03,20,15,52,19.70
2019,03,20,15,53,19.60
2019,03,20,15,54,19.50
2019,03,20,15,55,19.40
2019,03,20,15,56,19.30
2019,03,20,15,57,19.30
2019,03,20,15,58,19.20
2019,03,20,15,59,19.10
2019,03,20,16,00,19.10
2019,03,20,16,01,19.00
2019,03,20,16,02,19.00
2019,03,20,16,03,18.90
2019,03,20,16,04,18.90
2019,03,20,16,05,18.80
2019,03,20,16,06,18.80
2019,03,20,16,07,18.80
2019,03,20,16,08,18.80
2019,03,20,16,09,18.80
2019,03,20,16,10,18.80
2019,03,20,16,11,18.70
2019,03,20,16,12,18.70
2019,03,20,16,13,18.70
2019,03,20,16,14,18.80
2019,03,20,16,15,18.80
2019,03,20,16,16,19.00
2019,03,20,16,17,19.10
2019,03,20,16,18,19.20
2019,03,20,16,19,19.30
2019,03,20,16,20,19.40
2019,03,20,16,21,19.40
2019,03,20,16,22,19.40
2019,03,20,16,23,19.40
2019,03,20,16,24,19.30
2019,03,20,16,25,19.30
2019,03,20,16,26,19.20
2019,03,20,16,27,19.10
2019,03,20,16,28,19.10
2019,03,20,16,29,19.00
2019,03,20,16,30,19.00
2019,03,20,16,31,19.00
2019,03,20,16,32,19.00
2019,03,20,16,33,18.90
2019,03,20,16,34,18.90
2019,03,20,16,35,18.80
2019,03,20,16,36,18.80
2019,03,20,16,37,18.80
2019,03,20,16,38,18.90
2019,03,20,16,39,18.80
2019,03,20,16,40,18.90
2019,03,20,16,41,18.80
2019,03,20,16,42,18.80
2019,03,20,16,43,18.80
2019,03,20,16,44,18.80
2019,03,20,16,45,18.80
2019,03,20,16,46,18.80
2019,03,20,16,47,18.80
2019,03,20,16,48,18.80
2019,03,20,16,49,18.80
2019,03,20,16,50,18.70
2019,03,20,16,51,18.70
2019,03,20,16,52,18.70
2019,03,20,16,53,18.60
2019,03,20,16,54,18.50
2019,03,20,16,55,18.50
2019,03,20,16,56,18.50
2019,03,20,16,57,18.50
2019,03,20,16,58,18.50
2019,03,20,16,59,18.60
2019,03,20,17,00,18.60
2019,03,20,17,01,18.70
2019,03,20,17,02,18.70
2019,03,20,17,03,18.80
2019,03,20,17,04,18.80
2019,03,20,17,05,18.90
2019,03,20,17,06,18.90
2019,03,20,17,07,18.90
2019,03,20,17,08,18.80
2019,03,20,17,09,18.80
2019,03,20,17,10,18.80
2019,03,20,17,11,18.90
2019,03,20,17,12,18.90
2019,03,20,17,13,18.90
2019,03,20,17,14,18.90
2019,03,20,17,15,18.90
2019,03,20,17,16,19.00
2019,03,20,17,17,19.10
2019,03,20,17,18,19.10
2019,03,20,17,19,19.20
2019,03,20,17,20,19.20
2019,03,20,17,21,19.20
2019,03,20,17,22,19.20
2019,03,20,17,23,19.20
2019,03,20,17,24,19.20
2019,03,20,17,25,19.20
2019,03,20,17,26,19.20
2019,03,20,17,27,19.20
2019,03,20,17,28,19.10
2019,03,20,17,29,19.10
2019,03,20,17,30,19.10
2019,03,20,17,31,19.00
2019,03,20,17,32,18.90
2019,03,20,17,33,18.90
2019,03,20,17,34,18.80
2019,03,20,17,35,18.80
2019,03,20,17,36,18.70
2019,03,20,17,37,18.60
2019,03,20,17,38,18.60
2019,03,20,17,39,18.50
2019,03,20,17,40,18.50
2019,03,20,17,41,18.40
2019,03,20,17,42,18.30
2019,03,20,17,43,18.20
2019,03,20,17,44,18.10